Total_Precipitation_Accumulation
2.67 2.76 2.69 2.56 2.37 2.25 2.07 1.99 1.92 1.84 1.82 1.83 1.87 1.91 1.92 1.92 1.95 1.94 1.80 1.83 1.90 2.05 2.16 2.22 2.27 2.30 2.39 2.38 2.40 2.42 2.54 2.71 2.81 2.62 2.43 2.37 2.36 2.25 2.10 1.90 1.78 1.79 1.73
2.27 2.29 2.29 2.22 2.08 1.92 1.82 1.73 1.73 1.72 1.70 1.71 1.72 1.71 1.76 1.86 1.94 1.87 1.72 1.68 1.81 1.94 2.08 2.23 2.20 2.12 2.16 2.21 2.27 2.25 2.25 2.42 2.58 2.54 2.40 2.26 2.26 2.23 2.15 2.05 1.72 1.56 1.54
2.08 2.01 1.97 2.05 1.99 1.85 1.79 1.80 1.79 1.73 1.69 1.66 1.61 1.61 1.67 1.72 1.75 1.71 1.64 1.61 1.67 1.75 1.86 1.91 1.94 1.96 1.91 1.90 1.95 2.01 1.99 2.02 2.25 2.28 2.20 2.13 2.08 2.04 2.10 2.05 1.85 1.85 1.49
1.97 1.90 1.74 1.71 1.75 1.78 1.74 1.70 1.64 1.59 1.62 1.65 1.62 1.58 1.57 1.50 1.40 1.36 1.36 1.41 1.46 1.46 1.52 1.54 1.62 1.75 1.78 1.78 1.73 1.81 1.88 2.02 2.12 2.16 2.07 2.01 2.01 1.91 1.98 1.99 1.94 1.80 1.59
2.15 2.04 1.86 1.68 1.70 1.74 1.71 1.63 1.56 1.50 1.42 1.48 1.53 1.46 1.33 1.19 1.03 1.05 1.13 1.16 1.25 1.28 1.30 1.24 1.24 1.47 1.62 1.57 1.42 1.59 1.80 1.97 2.04 2.06 1.96 1.85 1.79 1.89 1.86 1.79 1.80 1.79 1.68
2.11 2.15 2.15 2.04 2.00 1.91 1.73 1.64 1.63 1.61 1.55 1.48 1.45 1.37 1.24 1.00 0.99 0.96 1.07 1.22 1.32 1.28 1.30 1.28 1.19 1.25 1.35 1.31 1.23 1.35 1.60 1.70 1.81 1.96 1.95 1.85 1.77 1.80 1.85 1.84 1.87 1.94 1.90
2.16 2.24 2.20 2.11 2.05 1.98 1.75 1.64 1.69 1.68 1.66 1.59 1.46 1.41 1.36 1.26 1.13 0.96 0.98 1.13 1.25 1.25 1.26 1.28 1.12 1.06 1.24 1.25 1.27 1.26 1.32 1.34 1.47 1.79 1.97 1.83 1.80 1.87 2.01 1.95 2.05 2.06 1.92
2.28 2.26 2.17 2.02 1.98 1.93 1.84 1.79 1.74 1.67 1.64 1.60 1.52 1.41 1.32 1.11 0.97 0.85 0.88 1.00 1.20 1.24 1.22 1.27 1.31 1.23 1.15 1.22 1.23 1.25 1.30 1.33 1.30 1.36 1.60 1.68 1.71 1.87 2.03 2.09 2.20 2.12 1.99
2.27 2.13 2.02 1.93 1.94 1.83 1.81 1.76 1.71 1.63 1.57 1.51 1.43 1.37 1.29 1.12 0.93 0.80 0.85 1.00 1.19 1.21 1.18 1.16 1.24 1.25 1.23 1.21 1.25 1.36 1.42 1.42 1.22 1.22 1.29 1.40 1.48 1.63 1.78 1.92 2.18 2.34 2.16
1.97 1.78 1.67 1.72 1.78 1.65 1.55 1.51 1.48 1.49 1.49 1.40 1.31 1.30 1.28 1.24 1.10 0.92 0.91 0.98 1.14 1.17 1.23 1.22 1.16 1.19 1.23 1.20 1.29 1.45 1.47 1.44 1.33 1.28 1.41 1.51 1.49 1.59 1.68 1.84 2.13 2.23 2.09
1.74 1.65 1.64 1.59 1.58 1.53 1.52 1.52 1.43 1.34 1.38 1.39 1.37 1.30 1.22 1.13 1.02 0.89 0.87 0.82 0.97 1.09 1.14 1.22 1.18 1.14 1.14 1.17 1.29 1.35 1.37 1.34 1.45 1.59 1.62 1.60 1.61 1.65 1.66 1.72 1.96 2.11 2.14
1.59 1.53 1.58 1.54 1.42 1.50 1.64 1.58 1.51 1.50 1.46 1.40 1.36 1.28 1.12 1.03 0.90 0.81 0.81 0.81 0.87 1.02 1.15 1.18 1.13 1.11 1.11 1.17 1.19 1.25 1.27 1.33 1.52 1.71 1.72 1.65 1.55 1.52 1.56 1.59 1.77 1.95 2.01
1.57 1.56 1.49 1.40 1.47 1.54 1.65 1.60 1.49 1.45 1.33 1.20 1.16 1.10 0.98 0.88 0.79 0.75 0.76 0.80 0.87 0.94 1.02 1.07 1.03 1.05 1.08 1.21 1.25 1.26 1.35 1.54 1.67 1.75 1.76 1.69 1.56 1.50 1.50 1.47 1.59 1.82 1.84
1.64 1.60 1.47 1.36 1.34 1.39 1.44 1.46 1.37 1.28 1.18 1.08 1.04 0.99 0.93 0.89 0.81 0.75 0.76 0.78 0.81 0.86 0.91 0.98 1.06 1.12 1.15 1.27 1.40 1.49 1.52 1.58 1.57 1.70 1.76 1.68 1.55 1.52 1.54 1.53 1.64 1.74 1.78
1.51 1.38 1.28 1.16 1.14 1.18 1.18 1.16 1.15 1.06 1.00 0.96 0.88 0.81 0.87 0.87 0.79 0.80 0.77 0.76 0.78 0.81 0.85 1.00 1.22 1.28 1.37 1.46 1.49 1.54 1.59 1.53 1.47 1.49 1.59 1.64 1.64 1.57 1.52 1.47 1.59 1.66 1.72
1.39 1.16 1.01 0.95 0.95 0.89 0.86 0.88 0.86 0.84 0.82 0.78 0.76 0.71 0.67 0.67 0.65 0.66 0.69 0.75 0.79 0.85 0.89 1.07 1.19 1.26 1.36 1.42 1.44 1.45 1.49 1.52 1.45 1.43 1.48 1.50 1.50 1.49 1.52 1.47 1.50 1.65 1.70
1.18 0.99 0.83 0.79 0.82 0.80 0.80 0.90 0.92 0.78 0.73 0.69 0.68 0.64 0.62 0.60 0.57 0.63 0.73 0.79 0.88 1.00 1.09 1.21 1.21 1.27 1.34 1.31 1.31 1.34 1.36 1.38 1.33 1.32 1.31 1.31 1.33 1.36 1.44 1.48 1.46 1.50 1.51
0.89 0.78 0.71 0.74 0.73 0.68 0.67 0.76 0.87 0.93 0.90 0.79 0.71 0.70 0.65 0.66 0.65 0.67 0.78 0.84 0.98 1.12 1.21 1.27 1.27 1.26 1.28 1.27 1.27 1.27 1.23 1.20 1.18 1.20 1.26 1.27 1.29 1.30 1.31 1.32 1.32 1.33 1.40
0.70 0.69 0.66 0.66 0.63 0.58 0.56 0.59 0.63 0.71 0.84 0.88 0.82 0.79 0.79 0.83 0.84 0.86 0.90 0.91 1.01 1.10 1.13 1.17 1.20 1.19 1.17 1.23 1.23 1.15 1.10 1.10 1.11 1.12 1.16 1.21 1.23 1.20 1.21 1.17 1.16 1.19 1.26
0.60 0.60 0.63 0.60 0.59 0.58 0.55 0.56 0.60 0.66 0.73 0.80 0.82 0.81 0.85 0.95 1.01 1.02 1.01 0.99 0.99 1.01 1.00 1.00 0.98 0.96 1.02 1.08 1.06 0.99 0.96 1.01 1.05 1.06 1.09 1.09 1.08 1.10 1.11 1.09 1.10 1.14 1.19
0.54 0.55 0.57 0.54 0.54 0.55 0.56 0.61 0.66 0.69 0.74 0.83 0.85 0.85 0.88 0.93 1.01 1.00 1.03 1.01 0.95 0.95 0.95 0.92 0.87 0.87 0.91 0.97 0.99 0.97 0.93 0.93 0.95 1.02 1.05 1.02 1.01 1.01 0.97 0.96 0.99 0.99 1.01
0.62 0.62 0.56 0.54 0.51 0.52 0.55 0.63 0.75 0.83 0.85 0.87 0.89 0.84 0.84 0.82 0.89 0.94 0.95 0.93 0.89 0.87 0.85 0.84 0.78 0.78 0.83 0.89 0.93 0.93 0.90 0.89 0.93 0.97 0.98 0.96 0.96 0.95 0.93 0.92 0.93 0.95 0.95
0.67 0.61 0.59 0.60 0.53 0.53 0.54 0.58 0.69 0.77 0.82 0.89 0.89 0.83 0.79 0.79 0.83 0.86 0.85 0.75 0.64 0.62 0.65 0.73 0.75 0.72 0.72 0.74 0.76 0.78 0.80 0.85 0.88 0.90 0.91 0.87 0.89 0.87 0.85 0.85 0.82 0.88 0.92
0.72 0.69 0.71 0.74 0.64 0.58 0.57 0.57 0.62 0.65 0.66 0.74 0.80 0.78 0.78 0.82 0.80 0.76 0.72 0.60 0.51 0.50 0.52 0.57 0.65 0.67 0.65 0.66 0.68 0.67 0.68 0.72 0.74 0.72 0.71 0.74 0.78 0.76 0.76 0.77 0.79 0.82 0.87
0.67 0.71 0.74 0.73 0.71 0.66 0.60 0.57 0.60 0.60 0.62 0.67 0.73 0.72 0.71 0.72 0.73 0.72 0.66 0.61 0.56 0.53 0.51 0.51 0.53 0.54 0.56 0.57 0.60 0.59 0.63 0.65 0.65 0.63 0.60 0.62 0.65 0.68 0.73 0.79 0.80 0.83 0.85
0.48 0.55 0.63 0.66 0.68 0.65 0.59 0.58 0.61 0.62 0.62 0.63 0.65 0.66 0.65 0.65 0.65 0.66 0.63 0.60 0.57 0.55 0.51 0.48 0.46 0.46 0.48 0.52 0.54 0.55 0.55 0.53 0.54 0.59 0.59 0.62 0.66 0.68 0.73 0.77 0.76 0.82 0.88